Regional Weather Roundup
Issued by NWS

Home | Current Version | Previous Version | Graphics & Text | Print | Product List | Glossary On
Versions: 1 2 3 4 5 6 7 8 9 10 11 12 13 14 15 16 17 18 19 20 21 22 23 24 25 26 27 28 29 30 31 32 33 34 35 36 37 38 39 40 41 42 43 44 45 46 47 48 49 50
000
ASUS43 KTOP 070908
RWRKS

WEATHER ROUNDUP FOR KANSAS
NATIONAL WEATHER SERVICE GOODLAND KS
400 AM CDT THU MAY 07 2015

NOTE:  "FAIR" INDICATES FEW OR NO CLOUDS BELOW 12,000 FEET WITH NO
SIGNIFICANT WEATHER AND/OR OBSTRUCTIONS TO VISIBILITY.

KSZ001>006-013>018-027>032-041>047-071000-
NORTHWEST KANSAS

CITY           SKY/WX    TMP DP  RH WIND       PRES   REMARKS
GOODLAND       CLOUDY    53  50  89 N12       29.79R
HAYS           MOCLDY    63  54  72 S16       29.74R
HILL CITY      CLOUDY    60  54  80 W10       29.74R
RUSSELL        PTCLDY    64  59  83 S20       29.73R
$$

KSZ061>065-074>080-084>089-071000-
SOUTHWEST KANSAS

CITY           SKY/WX    TMP DP  RH WIND       PRES   REMARKS
DODGE CITY     PTCLDY    63  58  83 S16       29.74R
ELKHART          N/A     55  47  74 W6          N/A
GARDEN CITY    PTCLDY    51  49  92 NW15      29.77R
GREAT BEND     MOCLDY    63  55  77 S24G30    29.73R
LIBERAL        PTCLDY    57  48  72 S12       29.77F
PRATT          PTCLDY    61  57  88 S22       29.77R
$$

KSZ066>073-081>083-090>101-071000-
SOUTHEAST KANSAS

CITY           SKY/WX    TMP DP  RH WIND       PRES   REMARKS
CHANUTE        CLOUDY    69  61  75 S17       29.84F
COFFEYVILLE    CLOUDY    68  62  81 S6        29.86F
HUTCHINSON     CLEAR     66  59  78 S21G32    29.74S
MEDICINE LODGE   N/A     63  60  90 SE9G17    29.77S
NEWTON         PTCLDY    64  54  68 S17G23    29.78S
PARSONS        CLOUDY    69  63  81 S6        29.87F
WICHITA INTL   MOCLDY    66  60  81 S16       29.78R
WICHITA JABRA  PTCLDY    66  58  75 S16       29.78S
WICHITA MCCONL MOCLDY    66  60  80 SE16G24   29.78S
WINFIELD       MOCLDY    66  63  90 SE14G23   29.80F
$$

KSZ007>012-019>026-033>040-048>060-102>105-071000-
NORTHEAST KANSAS

CITY           SKY/WX    TMP DP  RH WIND       PRES   REMARKS
CONCORDIA      CLOUDY    65  58  78 S17G28    29.71R
EMPORIA        CLOUDY    67  52  58 S15       29.76S
LAWRENCE       CLOUDY    68  58  70 S16G23    29.79F
MANHATTAN      CLOUDY    69  56  62 S10       29.72S
MARYSVILLE     CLOUDY    64  59  82 S9        29.73R
OLATHE IND     MOCLDY    66  58  75 S15G25    29.83S
OLATHE EXE     MOCLDY    66  59  78 S15       29.83S
SALINA         PTCLDY    68  59  73 S18G26    29.71F
TOPEKA BILLARD MOCLDY    68  58  70 S14G21    29.76F
TOPEKA FORBES  MOCLDY    69  57  65 S15G23    29.76F
$$



USA.gov is the U.S. government's official web portal to all federal, state and local government web resources and services.